This demonstration page uses our WeatherBlox Daily Observations layout. Learn more.

Left ArrowRight Arrow

Hourly Observations for October 26, 2016

Temp ( °F °C ) Dew Point ( °F °C ) Humidity (%) Winds ( mph kmh ) Pressure ( in mb ) Visibility ( mi km ) Precip ( " mm )
12:16 am 00:16 Mostly Cloudy 43 6 37 3 81 81 E 7 11 30.33 1027 10 16.0934 N/A
12:37 am 00:37 Mostly Cloudy 43 6 37 3 81 81 ESE 7 11 30.33 1027 10 16.0934 N/A
12:57 am 00:57 Partly Cloudy 45 7 37 3 76 76 ESE 9 15 30.33 1027 10 16.0934 N/A
1:16 am 01:16 Clear 45 7 37 3 76 76 ESE 9 15 30.33 1027 10 16.0934 N/A
1:37 am 01:37 Clear 46 8 36 2 66 66 ESE 8 13 30.33 1027 10 16.0934 N/A
1:57 am 01:57 Clear 45 7 36 2 71 71 E 6 9 30.33 1027 10 16.0934 N/A
2:16 am 02:16 Mostly Cloudy 45 7 37 3 76 76 E 6 9 30.33 1027 10 16.0934 N/A
2:37 am 02:37 Cloudy 45 7 37 3 76 76 ESE 6 9 30.33 1027 10 16.0934 N/A
2:57 am 02:57 Mostly Cloudy 46 8 37 3 71 71 ESE 8 13 30.33 1027 10 16.0934 N/A
3:16 am 03:16 Cloudy 46 8 37 3 71 71 ESE 8 13 30.33 1027 10 16.0934 N/A
3:37 am 03:37 Cloudy 46 8 37 3 71 71 SE 8 13 30.33 1027 10 16.0934 N/A
3:57 am 03:57 Cloudy 46 8 36 2 66 66 SE 7 11 30.33 1027 10 16.0934 N/A
4:17 am 04:17 Mostly Cloudy 46 8 36 2 66 66 ESE 7 11 30.33 1027 10 16.0934 N/A
4:37 am 04:37 Partly Cloudy 46 8 37 3 71 71 ESE 10 17 30.3 1026 10 16.0934 N/A
4:57 am 04:57 Mostly Cloudy 46 8 37 3 71 71 ESE 9 15 30.3 1026 10 16.0934 N/A
5:17 am 05:17 Mostly Cloudy 46 8 37 3 71 71 E 12 19 30.3 1026 10 16.0934 N/A
5:37 am 05:37 Mostly Cloudy 46 8 37 3 71 71 E 8 13 30.3 1026 10 16.0934 N/A
5:56 am 05:56 Partly Cloudy 46 8 37 3 71 71 ESE 10 17 30.27 1025 10 16.0934 N/A
6:17 am 06:17 Mostly Cloudy 46 8 37 3 71 71 ESE 10 17 30.27 1025 10 16.0934 N/A
6:37 am 06:37 Mostly Cloudy 46 8 37 3 71 71 ESE 8 13 30.27 1025 10 16.0934 N/A
6:56 am 06:56 Mostly Cloudy 46 8 37 3 71 71 ESE 9 15 30.3 1026 10 16.0934 N/A
7:17 am 07:17 Cloudy 46 8 37 3 71 71 ESE 10 17 30.27 1025 10 16.0934 N/A
7:37 am 07:37 Cloudy 46 8 37 3 71 71 E 10 17 30.27 1025 10 16.0934 N/A
7:56 am 07:56 Cloudy 46 8 37 3 71 71 E 10 17 30.3 1026 10 16.0934 N/A
8:17 am 08:17 Cloudy 46 8 37 3 71 71 E 9 15 30.3 1026 10 16.0934 N/A
8:37 am 08:37 Cloudy 46 8 37 3 71 71 E 9 15 30.27 1025 10 16.0934 N/A
8:56 am 08:56 Mostly Cloudy 46 8 37 3 71 71 ESE 10 17 30.27 1025 10 16.0934 N/A
9:17 am 09:17 Mostly Cloudy 46 8 37 3 71 71 ESE 9 15 30.27 1025 10 16.0934 N/A
9:37 am 09:37 Partly Cloudy 46 8 37 3 71 71 ESE 10 17 30.27 1025 10 16.0934 N/A
9:56 am 09:56 Mostly Cloudy 48 9 37 3 66 66 ESE 12 19 30.27 1025 10 16.0934 N/A
10:17 am 10:17 Mostly Cloudy 48 9 37 3 66 66 ESE 12 19 30.27 1025 10 16.0934 N/A
10:37 am 10:37 Mostly Cloudy 50 10 37 3 62 62 ESE 15 24 30.27 1025 10 16.0934 N/A
10:56 am 10:56 Mostly Cloudy 50 10 37 3 62 62 ESE 13 20 30.27 1025 10 16.0934 N/A
11:17 am 11:17 Partly Cloudy 52 11 37 3 58 58 ESE 14 22 30.24 1024 10 16.0934 N/A
11:37 am 11:37 Sunny 52 11 37 3 58 58 ESE 13 20 30.24 1024 10 16.0934 N/A
11:56 am 11:56 Partly Cloudy 54 12 37 3 54 54 SE 13 20 30.24 1024 10 16.0934 N/A
12:17 pm 12:17 Sunny 55 13 37 3 51 51 SE 14 22 30.24 1024 10 16.0934 N/A
12:37 pm 12:37 Sunny 55 13 37 3 51 51 ESE 14 22 30.21 1023 10 16.0934 N/A
12:56 pm 12:56 Sunny 57 14 39 4 51 51 SE 10 17 30.18 1022 10 16.0934 N/A
1:17 pm 13:17 Sunny 57 14 39 4 51 51 SE 12 19 30.18 1022 10 16.0934 N/A
1:37 pm 13:37 Sunny 59 15 39 4 48 48 SE 9 15 30.18 1022 10 16.0934 N/A
1:56 pm 13:56 Sunny 59 15 39 4 48 48 SE 12 19 30.15 1021 10 16.0934 N/A
2:17 pm 14:17 Sunny 59 15 41 5 51 51 SE 9 15 30.15 1021 10 16.0934 N/A
2:37 pm 14:37 Partly Cloudy 59 15 41 5 51 51 SSE 8 13 30.15 1021 10 16.0934 N/A
2:57 pm 14:57 Mostly Cloudy 61 16 41 5 48 48 SSE 9 15 30.12 1020 10 16.0934 N/A
3:17 pm 15:17 Cloudy 61 16 41 5 48 48 SE 9 15 30.12 1020 10 16.0934 N/A
3:36 pm 15:36 Mostly Cloudy 63 17 43 6 49 49 SE 10 17 30.12 1020 10 16.0934 N/A
3:57 pm 15:57 Partly Cloudy 63 17 43 6 49 49 SE 8 13 30.12 1020 10 16.0934 N/A
4:17 pm 16:17 Partly Cloudy 63 17 43 6 49 49 SE 7 11 30.09 1019 10 16.0934 N/A
4:36 pm 16:36 Partly Cloudy 64 18 43 6 46 46 SSE 10 17 30.09 1019 10 16.0934 N/A
4:57 pm 16:57 Sunny 63 17 43 6 49 49 SE 9 15 30.09 1019 10 16.0934 N/A
5:17 pm 17:17 Sunny 63 17 45 7 52 52 SE 7 11 30.09 1019 10 16.0934 N/A
5:36 pm 17:36 Sunny 61 16 45 7 55 55 SE 6 9 30.09 1019 10 16.0934 N/A
5:57 pm 17:57 Sunny 61 16 45 7 55 55 SSE 5 7 30.09 1019 10 16.0934 N/A
6:17 pm 18:17 Sunny 61 16 45 7 55 55 SE 6 9 30.09 1019 10 16.0934 N/A
6:36 pm 18:36 Sunny 61 16 45 7 55 55 SE 6 9 30.09 1019 10 16.0934 N/A
6:57 pm 18:57 Clear 59 15 46 8 63 63 SE 5 7 30.09 1019 10 16.0934 N/A
7:17 pm 19:17 Clear 59 15 45 7 59 59 SE 6 9 30.09 1019 10 16.0934 N/A
7:36 pm 19:36 Clear 59 15 46 8 63 63 SE 6 9 30.06 1018 10 16.0934 N/A
7:57 pm 19:57 Partly Cloudy 59 15 46 8 63 63 SE 7 11 30.06 1018 10 16.0934 N/A
8:17 pm 20:17 Mostly Cloudy 59 15 46 8 63 63 SSE 6 9 30.06 1018 10 16.0934 N/A
8:36 pm 20:36 Mostly Cloudy 59 15 46 8 63 63 SSE 8 13 30.06 1018 10 16.0934 N/A
8:57 pm 20:57 Cloudy 59 15 46 8 63 63 SSE 6 9 30.06 1018 10 16.0934 N/A
9:17 pm 21:17 Cloudy 57 14 48 9 72 72 SSE 6 9 30.03 1017 10 16.0934 N/A
9:36 pm 21:36 Cloudy 57 14 50 10 77 77 SSE 5 7 30.03 1017 10 16.0934 N/A
9:57 pm 21:57 Cloudy 55 13 50 10 82 82 S 7 11 30.06 1018 10 16.0934 N/A
10:17 pm 22:17 Cloudy 55 13 50 10 82 82 SSW 6 9 30.06 1018 7 11.26538 N/A
10:36 pm 22:36 Cloudy 55 13 52 11 88 88 SSW 6 9 30.06 1018 7 11.26538 N/A
10:57 pm 22:57 Cloudy 55 13 54 12 94 94 SSW 8 13 30.06 1018 5 8.0467 N/A
11:17 pm 23:17 Cloudy 57 14 54 12 88 88 SSW 7 11 30.06 1018 10 16.0934 N/A
11:36 pm 23:36 Cloudy 55 13 54 12 94 94 S 5 7 30.03 1017 10 16.0934 N/A
11:57 pm 23:57 Cloudy 55 13 54 12 94 94 S 6 9 30.03 1017 10 16.0934 N/A

Powered by AerisWeather